This demonstration page uses our WeatherBlox Daily Observations layout. Learn more.

Left ArrowRight Arrow

Hourly Observations for August 22, 2020

Temp ( °F °C ) Dew Point ( °F °C ) Humidity (%) Winds ( mph kmh ) Pressure ( in mb ) Visibility ( mi km ) Precip ( " mm )
12:15 am 00:15 Clear 69 20.7 64 18 85 85 SSW 6 9 29.83 1010 10 16.0934 0 0
12:35 am 00:35 Clear 69 20.8 64 17.7 83 83 S 5 7 29.82 1010 10 16.0934 0 0
12:55 am 00:55 Clear 69 20.7 64 17.6 83 83 S 5 7 29.82 1010 10 16.0934 0 0
1:15 am 01:15 Clear 69 20.7 64 17.5 82 82 S 6 9 29.82 1010 10 16.0934 0 0
1:35 am 01:35 Clear 69 20.6 64 17.5 83 83 S 5 7 29.82 1010 10 16.0934 0 0
1:55 am 01:55 Clear 68 19.8 63 17.2 85 85 S 5 7 29.83 1010 10 16.0934 0 0
2:15 am 02:15 Clear 68 20 63 17.2 84 84 S 5 7 29.82 1010 10 16.0934 0 0
2:35 am 02:35 Clear 67 19.3 63 17 87 87 S 6 9 29.83 1010 10 16.0934 0 0
2:55 am 02:55 Clear 67 19.5 63 17 86 86 SW 3 6 29.82 1010 10 16.0934 0 0
3:15 am 03:15 Clear 67 19.5 63 17.1 86 86 SSW 8 13 29.83 1010 10 16.0934 0 0
3:35 am 03:35 Clear 67 19.2 63 17 87 87 SSW 7 11 29.82 1010 10 16.0934 0 0
3:55 am 03:55 Clear 66 19 62 16.8 87 87 SSW 7 11 29.84 1010 10 16.0934 0 0
4:15 am 04:15 Clear 66 18.8 62 16.7 88 88 SSW 6 9 29.84 1010 10 16.0934 0 0
4:35 am 04:35 Clear 65 18.5 62 16.5 88 88 SSW 5 7 29.84 1010 10 16.0934 0 0
4:55 am 04:55 Clear 65 18.5 62 16.5 88 88 SSW 7 11 29.84 1010 10 16.0934 0 0
5:15 am 05:15 Clear 65 18.5 62 16.5 88 88 SSW 6 9 29.84 1010 10 16.0934 0 0
5:35 am 05:35 Clear 65 18.5 62 16.5 88 88 SSW 5 7 29.83 1010 10 16.0934 0 0
5:55 am 05:55 Clear 65 18.2 61 16.3 89 89 SSW 5 7 29.83 1010 10 16.0934 0 0
6:15 am 06:15 Clear 64 17.8 61 16 89 89 SW 3 6 29.84 1010 10 16.0934 0 0
6:35 am 06:35 Clear 65 18.1 61 16 88 88 Calm 29.83 1010 10 16.0934 0 0
6:55 am 06:55 Clear 63 17.3 61 16 92 92 S 3 6 29.85 1011 10 16.0934 0 0
7:15 am 07:15 Sunny 63 17 60 15.5 91 91 Calm 29.85 1011 10 16.0934 0 0
7:35 am 07:35 Sunny 63 17.3 61 15.9 92 92 S 5 7 29.88 1012 10 16.0934 0 0
7:55 am 07:55 Sunny 64 17.8 61 16.2 90 90 S 5 7 29.88 1012 10 16.0934 0 0
8:15 am 08:15 Sunny 65 18.6 62 16.5 88 88 SSW 5 7 29.87 1011 10 16.0934 0 0
8:35 am 08:35 Sunny 67 19.4 62 16.9 86 86 SSW 6 9 29.86 1011 10 16.0934 0 0
8:55 am 08:55 Sunny 69 20.6 63 17.3 81 81 SSW 6 9 29.85 1011 10 16.0934 0 0
9:15 am 09:15 Sunny 71 21.7 64 17.5 77 77 SSW 7 11 29.84 1011 10 16.0934 0 0
9:35 am 09:35 Sunny 73 22.7 64 17.7 73 73 SSW 9 15 29.84 1010 10 16.0934 0 0
9:55 am 09:55 Sunny 75 23.7 64 17.6 69 69 SW 8 13 29.82 1010 10 16.0934 0 0
10:15 am 10:15 Sunny 75 24 64 17.6 68 68 SSW 6 9 29.82 1010 10 16.0934 0 0
10:35 am 10:35 Sunny 77 25 64 17.6 64 64 SSW 7 11 29.82 1010 10 16.0934 0 0
10:55 am 10:55 Sunny 78 25.6 64 17.6 61 61 SSW 8 13 29.81 1010 10 16.0934 0 0
11:15 am 11:15 Sunny 79 26.1 65 18.1 61 61 SSW 8 13 29.81 1009 10 16.0934 0 0
11:35 am 11:35 Sunny 80 26.9 65 18.2 59 59 S 5 7 29.8 1009 10 16.0934 0 0
11:55 am 11:55 Sunny 81 27.2 64 17.8 57 57 S 6 9 29.79 1009 10 16.0934 0 0
12:15 pm 12:15 Sunny 83 28.6 65 18.3 54 54 SSW 6 9 29.79 1009 10 16.0934 0 0
12:35 pm 12:35 Sunny 84 29.1 65 18.4 52 52 SSE 6 9 29.77 1008 10 16.0934 0 0
12:55 pm 12:55 Sunny 84 28.9 65 18.4 53 53 S 6 9 29.78 1008 10 16.0934 0 0
1:15 pm 13:15 Sunny 85 29.7 65 18.1 50 50 SSE 6 9 29.78 1008 10 16.0934 0 0
1:35 pm 13:35 Sunny 86 29.9 66 18.9 52 52 SE 6 9 29.76 1008 10 16.0934 0 0
1:55 pm 13:55 Sunny 88 31 66 18.7 48 48 SSE 8 13 29.75 1007 10 16.0934 0 0
2:15 pm 14:15 Sunny 88 31.3 65 18.5 46 46 SSE 6 9 29.75 1007 10 16.0934 0 0
2:35 pm 14:35 Sunny 89 31.9 64 17.9 43 43 S 9 15 29.75 1008 10 16.0934 0 0
2:55 pm 14:55 Sunny 90 32.2 62 16.6 39 39 S 9 15 29.73 1007 10 16.0934 0 0
3:15 pm 15:15 Sunny 91 32.7 61 16.2 37 37 S 10 17 29.74 1007 10 16.0934 0 0
3:35 pm 15:35 Sunny 91 33 62 16.4 37 37 S 9 15 29.74 1007 10 16.0934 0 0
3:55 pm 15:55 Sunny 91 32.8 62 16.6 38 38 S 8 13 29.74 1007 10 16.0934 0 0
4:15 pm 16:15 Sunny 92 33.1 62 16.8 38 38 SSE 8 13 29.71 1006 10 16.0934 0 0
4:35 pm 16:35 Sunny 92 33.1 62 16.5 37 37 SSE 8 13 29.72 1007 10 16.0934 0 0
4:55 pm 16:55 Sunny 92 33.3 61 16.1 36 36 S 7 11 29.71 1006 10 16.0934 0 0
5:15 pm 17:15 Sunny 92 33.2 61 16 36 36 S 9 15 29.7 1006 10 16.0934 0 0
5:35 pm 17:35 Sunny 91 33 62 16.5 37 37 S 8 13 29.72 1006 10 16.0934 0 0
5:55 pm 17:55 Sunny 91 32.7 63 17.3 40 40 S 6 9 29.72 1006 10 16.0934 0 0
6:15 pm 18:15 Sunny 91 32.5 63 17.4 40 40 S 6 9 29.72 1006 10 16.0934 0 0
6:35 pm 18:35 Sunny 89 31.7 67 19.2 47 47 SSE 5 7 29.72 1006 10 16.0934 0 0
6:55 pm 18:55 Sunny 89 31.5 67 19.6 49 49 SSE 3 6 29.73 1007 10 16.0934 0 0
7:15 pm 19:15 Sunny 87 30.6 68 19.9 53 53 SSE 3 6 29.73 1007 10 16.0934 0 0
7:35 pm 19:35 Sunny 85 29.4 68 20.2 58 58 SSE 3 6 29.73 1007 10 16.0934 0 0
7:55 pm 19:55 Sunny 82 27.8 69 20.7 65 65 SE 5 7 29.76 1008 10 16.0934 0 0
8:15 pm 20:15 Sunny 80 26.4 68 20 68 68 SE 5 7 29.77 1008 10 16.0934 0 0
8:35 pm 20:35 Clear 77 25.2 68 19.9 73 73 SE 6 9 29.78 1008 10 16.0934 0 0
8:55 pm 20:55 Clear 76 24.7 66 19.1 71 71 SSE 5 7 29.79 1009 10 16.0934 0 0
9:15 pm 21:15 Clear 76 24.7 65 18.5 69 69 SSE 5 7 29.79 1009 10 16.0934 0 0
9:35 pm 21:35 Clear 76 24.3 65 18.1 68 68 SSE 5 7 29.79 1009 10 16.0934 0 0
9:55 pm 21:55 Clear 75 23.7 64 18 71 71 SSE 5 7 29.81 1009 10 16.0934 0 0
10:15 pm 22:15 Clear 72 22 64 17.7 77 77 Calm 29.83 1010 10 16.0934 0 0
10:35 pm 22:35 Clear 74 23.5 64 17.8 70 70 SSE 3 6 29.83 1010 10 16.0934 0 0
10:55 pm 22:55 Clear 72 22.2 64 18 77 77 S 3 6 29.84 1010 10 16.0934 0 0
11:15 pm 23:15 Clear 70 20.9 63 17.4 80 80 Calm 29.84 1010 10 16.0934 0 0
11:35 pm 23:35 Clear 71 21.7 64 17.7 78 78 S 3 6 29.85 1011 10 16.0934 0 0
11:55 pm 23:55 Clear 71 21.4 64 17.5 79 79 S 3 6 29.85 1011 10 16.0934 0 0

Powered by AerisWeather